Time,TemperatureF,DewpointF,PressureIn,WindDirection,WindDirectionDegrees,WindSpeedMPH,WindSpeedGustMPH,Humidity,HourlyPrecipIn,Conditions,Clouds,dailyrainin,SolarRadiationWatts/m^2,SoftwareType,DateUTC
2013-02-11 00:02:00,40.0,21.0,-100.00,SSW,204,5.0,15.0,47,0.02,,,0.02,0.000000,,2013-02-11 05:02:00,
2013-02-11 00:12:00,40.0,21.0,-100.00,SSW,204,5.0,15.0,47,0.02,,,0.02,0.000000,,2013-02-11 05:12:00,
2013-02-11 00:42:00,38.0,34.0,-100.00,SSW,197,4.0,14.0,86,0.06,,,0.08,0.000000,,2013-02-11 05:42:00,
2013-02-11 00:53:00,38.0,34.0,-100.00,SSW,197,4.0,14.0,86,0.06,,,0.08,0.000000,,2013-02-11 05:53:00,
2013-02-11 01:02:00,38.0,34.0,-100.00,SSW,197,4.0,14.0,86,0.06,,,0.08,0.000000,,2013-02-11 06:02:00,
2013-02-11 01:12:00,38.0,34.0,-100.00,SSW,197,4.0,14.0,86,0.06,,,0.08,0.000000,,2013-02-11 06:12:00,
2013-02-11 01:42:00,41.0,37.0,-100.00,SSW,196,6.0,16.0,85,0.00,,,0.08,0.000000,,2013-02-11 06:42:00,
2013-02-11 01:52:00,41.0,37.0,-100.00,SSW,196,6.0,16.0,85,0.00,,,0.08,0.000000,,2013-02-11 06:52:00,
2013-02-11 02:02:00,41.0,37.0,-100.00,SSW,196,6.0,16.0,85,0.00,,,0.08,0.000000,,2013-02-11 07:02:00,
2013-02-11 02:12:00,41.0,37.0,-100.00,SSW,196,6.0,16.0,85,0.00,,,0.08,0.000000,,2013-02-11 07:12:00,
2013-02-11 02:42:00,42.0,37.0,-100.00,SSW,198,7.0,14.0,83,0.01,,,0.09,0.000000,,2013-02-11 07:42:00,
2013-02-11 02:52:00,42.0,37.0,-100.00,SSW,198,7.0,14.0,83,0.01,,,0.09,0.000000,,2013-02-11 07:52:00,
2013-02-11 03:01:00,42.0,37.0,-100.00,SSW,198,7.0,14.0,83,0.01,,,0.09,0.000000,,2013-02-11 08:01:00,
2013-02-11 03:11:00,42.0,37.0,-100.00,SSW,198,7.0,14.0,83,0.01,,,0.09,0.000000,,2013-02-11 08:11:00,
2013-02-11 03:42:00,42.0,38.0,-100.00,SW,227,4.0,13.0,84,0.01,,,0.10,0.000000,,2013-02-11 08:42:00,
2013-02-11 03:52:00,42.0,38.0,-100.00,SW,227,4.0,13.0,84,0.01,,,0.10,0.000000,,2013-02-11 08:52:00,
2013-02-11 04:02:00,42.0,38.0,-100.00,SW,227,4.0,13.0,84,0.01,,,0.10,0.000000,,2013-02-11 09:02:00,
2013-02-11 04:12:00,42.0,38.0,-100.00,SW,227,4.0,13.0,84,0.01,,,0.10,0.000000,,2013-02-11 09:12:00,
2013-02-11 04:42:00,44.0,39.0,-100.00,SSW,205,7.0,14.0,82,0.00,,,0.10,0.000000,,2013-02-11 09:42:00,
2013-02-11 04:52:00,44.0,39.0,-100.00,SSW,205,7.0,14.0,82,0.00,,,0.10,0.000000,,2013-02-11 09:52:00,
2013-02-11 05:02:00,44.0,39.0,-100.00,SSW,205,7.0,14.0,82,0.00,,,0.10,0.000000,,2013-02-11 10:02:00,
2013-02-11 05:11:00,44.0,39.0,-100.00,SSW,205,7.0,14.0,82,0.00,,,0.10,0.000000,,2013-02-11 10:11:00,
2013-02-11 05:42:00,47.0,40.0,-100.00,South,179,9.0,17.0,76,0.00,,,0.10,0.000000,,2013-02-11 10:42:00,
2013-02-11 05:52:00,47.0,40.0,-100.00,South,179,9.0,17.0,76,0.00,,,0.10,0.000000,,2013-02-11 10:52:00,
2013-02-11 06:02:00,47.0,40.0,-100.00,South,179,9.0,17.0,76,0.00,,,0.10,0.000000,,2013-02-11 11:02:00,
2013-02-11 06:11:00,47.0,40.0,-100.00,South,179,9.0,17.0,76,0.00,,,0.10,0.000000,,2013-02-11 11:11:00,
2013-02-11 06:42:00,47.0,39.0,-100.00,South,183,8.0,17.0,75,0.00,,,0.10,0.000000,,2013-02-11 11:42:00,
2013-02-11 06:52:00,47.0,39.0,-100.00,South,183,8.0,17.0,75,0.00,,,0.10,0.000000,,2013-02-11 11:52:00,
2013-02-11 07:03:00,47.0,39.0,-100.00,South,183,8.0,17.0,75,0.00,,,0.10,0.000000,,2013-02-11 12:03:00,
2013-02-11 07:12:00,47.0,39.0,-100.00,South,183,8.0,17.0,75,0.00,,,0.10,0.000000,,2013-02-11 12:12:00,
2013-02-11 07:42:00,47.0,40.0,-100.00,South,169,8.0,14.0,76,0.01,,,-99.99,0.000000,,2013-02-11 12:42:00,
2013-02-11 07:52:00,47.0,40.0,-100.00,South,169,8.0,14.0,76,0.01,,,-99.99,0.000000,,2013-02-11 12:52:00,
2013-02-11 08:02:00,47.0,40.0,-100.00,South,169,8.0,14.0,76,0.01,,,-99.99,0.000000,,2013-02-11 13:02:00,
2013-02-11 08:12:00,47.0,40.0,-100.00,South,169,8.0,14.0,76,0.01,,,-99.99,0.000000,,2013-02-11 13:12:00,
2013-02-11 08:42:00,46.0,43.0,-100.00,SSE,147,5.0,11.0,88,0.02,,,-99.99,9.000000,,2013-02-11 13:42:00,
2013-02-11 08:52:00,46.0,43.0,-100.00,SSE,147,5.0,11.0,88,0.02,,,-99.99,9.000000,,2013-02-11 13:52:00,
2013-02-11 09:02:00,46.0,43.0,-100.00,SSE,147,5.0,11.0,88,0.02,,,-99.99,9.000000,,2013-02-11 14:02:00,
2013-02-11 09:12:00,46.0,43.0,-100.00,SSE,147,5.0,11.0,88,0.02,,,-99.99,9.000000,,2013-02-11 14:12:00,
2013-02-11 09:42:00,49.0,46.0,-100.00,SSE,165,3.0,11.0,88,0.00,,,0.13,96.000000,,2013-02-11 14:42:00,
2013-02-11 09:53:00,49.0,46.0,-100.00,SSE,165,3.0,11.0,88,0.00,,,0.13,96.000000,,2013-02-11 14:53:00,
2013-02-11 10:02:00,49.0,46.0,-100.00,SSE,165,3.0,11.0,88,0.00,,,0.13,96.000000,,2013-02-11 15:02:00,
2013-02-11 10:11:00,49.0,46.0,-100.00,SSE,165,3.0,11.0,88,0.00,,,0.13,96.000000,,2013-02-11 15:11:00,
2013-02-11 10:42:00,53.0,46.0,-100.00,SSW,206,8.0,17.0,78,0.00,,,0.13,111.000000,,2013-02-11 15:42:00,
2013-02-11 10:52:00,53.0,46.0,-100.00,SSW,206,8.0,17.0,78,0.00,,,0.13,111.000000,,2013-02-11 15:52:00,
2013-02-11 11:02:00,53.0,46.0,-100.00,SSW,206,8.0,17.0,78,0.00,,,0.13,111.000000,,2013-02-11 16:02:00,
2013-02-11 11:12:00,53.0,46.0,-100.00,SSW,206,8.0,17.0,78,0.00,,,0.13,111.000000,,2013-02-11 16:12:00,
2013-02-11 11:42:00,56.0,44.0,-100.00,SW,218,15.0,26.0,65,0.00,,,0.13,269.000000,,2013-02-11 16:42:00,
2013-02-11 11:53:00,56.0,44.0,-100.00,SW,218,15.0,26.0,65,0.00,,,0.13,269.000000,,2013-02-11 16:53:00,
2013-02-11 12:02:00,56.0,44.0,-100.00,SW,218,15.0,26.0,65,0.00,,,0.13,269.000000,,2013-02-11 17:02:00,
2013-02-11 12:12:00,56.0,44.0,-100.00,SW,218,15.0,26.0,65,0.00,,,0.13,269.000000,,2013-02-11 17:12:00,
2013-02-11 12:42:00,58.0,44.0,-100.00,SW,231,17.0,29.0,60,0.00,,,0.13,318.000000,,2013-02-11 17:42:00,
2013-02-11 12:53:00,58.0,44.0,-100.00,SW,231,17.0,29.0,60,0.00,,,0.13,318.000000,,2013-02-11 17:53:00,
2013-02-11 13:02:00,58.0,44.0,-100.00,SW,231,17.0,29.0,60,0.00,,,0.13,318.000000,,2013-02-11 18:02:00,
2013-02-11 13:11:00,58.0,44.0,-100.00,SW,231,17.0,29.0,60,0.00,,,0.13,318.000000,,2013-02-11 18:11:00,
2013-02-11 13:42:00,59.0,38.0,-100.00,SW,232,17.0,36.0,45,0.00,,,0.13,461.000000,,2013-02-11 18:42:00,
2013-02-11 13:54:00,59.0,38.0,-100.00,SW,232,17.0,36.0,45,0.00,,,0.13,461.000000,,2013-02-11 18:54:00,
2013-02-11 14:02:00,59.0,38.0,-100.00,SW,232,17.0,36.0,45,0.00,,,0.13,461.000000,,2013-02-11 19:02:00,
2013-02-11 14:12:00,59.0,38.0,-100.00,SW,232,17.0,36.0,45,0.00,,,0.13,461.000000,,2013-02-11 19:12:00,
2013-02-11 15:42:00,59.0,25.0,-100.00,SW,235,17.0,39.0,27,-99.99,,,0.13,412.000000,,2013-02-11 20:42:00,
2013-02-11 15:52:00,59.0,25.0,-100.00,SW,235,17.0,39.0,27,-99.99,,,0.13,412.000000,,2013-02-11 20:52:00,
2013-02-11 16:02:00,59.0,25.0,-100.00,SW,235,17.0,39.0,27,-99.99,,,0.13,412.000000,,2013-02-11 21:02:00,
2013-02-11 16:12:00,59.0,25.0,-100.00,SW,235,17.0,39.0,27,-99.99,,,0.13,412.000000,,2013-02-11 21:12:00,
2013-02-11 16:42:00,57.0,21.0,-100.00,SW,233,17.0,36.0,24,0.00,,,0.13,262.000000,,2013-02-11 21:42:00,
2013-02-11 16:52:00,57.0,21.0,-100.00,SW,233,17.0,36.0,24,0.00,,,0.13,262.000000,,2013-02-11 21:52:00,
2013-02-11 17:02:00,57.0,21.0,-100.00,SW,233,17.0,36.0,24,0.00,,,0.13,262.000000,,2013-02-11 22:02:00,
2013-02-11 17:12:00,57.0,21.0,-100.00,SW,233,17.0,36.0,24,0.00,,,0.13,262.000000,,2013-02-11 22:12:00,
2013-02-11 17:42:00,55.0,18.0,-100.00,SW,233,15.0,29.0,23,0.00,,,0.13,123.000000,,2013-02-11 22:42:00,
2013-02-11 17:52:00,55.0,18.0,-100.00,SW,233,15.0,29.0,23,0.00,,,0.13,123.000000,,2013-02-11 22:52:00,
2013-02-11 18:02:00,55.0,18.0,-100.00,SW,233,15.0,29.0,23,0.00,,,0.13,123.000000,,2013-02-11 23:02:00,
2013-02-11 18:11:00,55.0,18.0,-100.00,SW,233,15.0,29.0,23,0.00,,,0.13,123.000000,,2013-02-11 23:11:00,
2013-02-11 18:32:00,52.0,18.0,-100.00,WSW,250,15.0,28.0,26,0.00,,,0.13,19.000000,,2013-02-11 23:32:00,
2013-02-11 18:42:00,52.0,18.0,-100.00,WSW,250,15.0,28.0,26,0.00,,,0.13,19.000000,,2013-02-11 23:42:00,
2013-02-11 18:52:00,52.0,18.0,-100.00,WSW,250,15.0,28.0,26,0.00,,,0.13,19.000000,,2013-02-11 23:52:00,
2013-02-11 19:02:00,52.0,18.0,-100.00,WSW,250,15.0,28.0,26,0.00,,,0.13,19.000000,,2013-02-12 00:02:00,
2013-02-11 19:12:00,52.0,18.0,-100.00,WSW,250,15.0,28.0,26,0.00,,,0.13,19.000000,,2013-02-12 00:12:00,
2013-02-11 19:42:00,50.0,16.0,-100.00,WSW,251,14.0,29.0,25,0.00,,,0.13,0.000000,,2013-02-12 00:42:00,
2013-02-11 19:52:00,50.0,16.0,-100.00,WSW,251,14.0,29.0,25,0.00,,,0.13,0.000000,,2013-02-12 00:52:00,
2013-02-11 20:12:00,50.0,16.0,-100.00,WSW,251,14.0,29.0,25,0.00,,,0.13,0.000000,,2013-02-12 01:12:00,
2013-02-11 20:42:00,47.0,20.0,-100.00,WSW,252,13.0,30.0,34,0.00,,,0.13,0.000000,,2013-02-12 01:42:00,
2013-02-11 20:52:00,47.0,20.0,-100.00,WSW,252,13.0,30.0,34,0.00,,,0.13,0.000000,,2013-02-12 01:52:00,
2013-02-11 21:02:00,47.0,20.0,-100.00,WSW,252,13.0,30.0,34,0.00,,,0.13,0.000000,,2013-02-12 02:02:00,
2013-02-11 21:12:00,47.0,20.0,-100.00,WSW,252,13.0,30.0,34,0.00,,,0.13,0.000000,,2013-02-12 02:12:00,
2013-02-11 21:42:00,42.0,27.0,-100.00,WNW,289,9.0,23.0,55,0.00,,,0.13,0.000000,,2013-02-12 02:42:00,
2013-02-11 21:53:00,42.0,27.0,-100.00,WNW,289,9.0,23.0,55,0.00,,,0.13,0.000000,,2013-02-12 02:53:00,
2013-02-11 22:02:00,42.0,27.0,-100.00,WNW,289,9.0,23.0,55,0.00,,,0.13,0.000000,,2013-02-12 03:02:00,
2013-02-11 22:11:00,42.0,27.0,-100.00,WNW,289,9.0,23.0,55,0.00,,,0.13,0.000000,,2013-02-12 03:11:00,
2013-02-11 22:32:00,41.0,27.0,-100.00,West,266,10.0,17.0,56,0.00,,,0.13,0.000000,,2013-02-12 03:32:00,
2013-02-11 22:42:00,41.0,27.0,-100.00,West,266,10.0,17.0,56,0.00,,,0.13,0.000000,,2013-02-12 03:42:00,
2013-02-11 22:52:00,41.0,27.0,-100.00,West,266,10.0,17.0,56,0.00,,,0.13,0.000000,,2013-02-12 03:52:00,
2013-02-11 23:01:00,41.0,27.0,-100.00,West,266,10.0,17.0,56,0.00,,,0.13,0.000000,,2013-02-12 04:01:00,
2013-02-11 23:11:00,41.0,27.0,-100.00,West,266,10.0,17.0,56,0.00,,,0.13,0.000000,,2013-02-12 04:11:00,
2013-02-11 23:32:00,41.0,23.0,-100.00,WSW,253,12.0,26.0,49,0.00,,,0.11,0.000000,,2013-02-12 04:32:00,
2013-02-11 23:42:00,41.0,23.0,-100.00,WSW,253,12.0,26.0,49,0.00,,,0.11,0.000000,,2013-02-12 04:42:00,
2013-02-11 23:52:00,41.0,23.0,-100.00,WSW,253,12.0,26.0,49,0.00,,,0.11,0.000000,,2013-02-12 04:52:00,